Weather History for KFYG - May, 2014

Change the Weather History Date:

Thursday, May 15, 2014

  Actual Average (KSTL) Record (KSTL)
Temperature  
Mean Temperature 52 °F 66 °F  
Max Temperature 59 °F 76 °F 94 °F (1944)
Min Temperature 44 °F 57 °F 39 °F (1959)
Degree Days  
Heating Degree Days 14 3  
Month to date heating degree days 52  
Since 1 July heating degree days 4508  
Cooling Degree Days 0 4  
Month to date cooling degree days 42  
Year to date cooling degree days 88  
Growing Degree Days 2 (Base 50)    
Moisture  
Dew Point 43 °F    
Average Humidity 79    
Maximum Humidity 100    
Minimum Humidity 38    
Precipitation  
Precipitation 0.28 in 0.16 in 1.91 in (1990)
Month to date precipitation 2.20  
Year to date precipitation 13.85  
Snow  
Snow 0.00 in 0.00 in 0.00 in (2012)
Month to date snowfall 0.0  
Since 1 July snowfall 17.7  
Snow Depth -    
Sea Level Pressure  
Sea Level Pressure 30.06 in    
Wind  
Wind Speed 3 mph (NW)    
Max Wind Speed 17 mph    
Max Gust Speed 28 mph    
Visibility 10 miles    
Events Rain , Thunderstorm    
T = Trace of Precipitation, MM = Missing Value Source: NWS Daily Summary

Daily Weather History Graph

Daily Weather History Graph

Search for Another Location

Airport or City:

Trip Planner

Search our weather history database for the weather conditions in past years. The results will help you decide how hot, cold, wet, or windy it might be!

Date:

Astronomy

May. 15, 2014 Rise Set
Actual Time 5:52 AM CDT 8:08 PM CDT
Civil Twilight 5:22 AM CDT 8:38 PM CDT
Nautical Twilight 4:45 AM CDT 9:15 PM CDT
Astronomical Twilight 4:05 AM CDT 9:56 PM CDT
Moon 9:17 PM CDT (5/15) 6:39 AM CDT (5/15)
Length of Visible Light 15h 16m
Length of Day
14h 16m
Full, 99% of the Moon is Illuminated
May 15
Full
May 21
Last Quarter
May 28
New
Jun 5
First Quarter
Jun 12
Full

Hourly Weather History & Observations

Time (CDT) Temp. Windchill Dew Point Humidity Pressure Visibility Wind Dir Wind Speed Gust Speed Precip Events Conditions
12:15 AM 46.4 °F 45.2 °F 46.4 °F 100% 30.09 in 10.0 mi NW 3.5 mph - N/A   Overcast
12:35 AM 46.4 °F - 46.4 °F 100% 30.09 in 10.0 mi Calm Calm - N/A   Overcast
12:55 AM 46.4 °F - 46.4 °F 100% 30.08 in 9.0 mi Calm Calm - N/A   Overcast
1:15 AM 46.4 °F - 46.4 °F 100% 30.08 in 9.0 mi Calm Calm - N/A   Mostly Cloudy
1:35 AM 46.4 °F - 46.4 °F 100% 30.08 in 9.0 mi Calm Calm - N/A   Overcast
1:55 AM 46.4 °F 45.2 °F 46.4 °F 100% 30.07 in 9.0 mi NNW 3.5 mph - N/A   Overcast
2:15 AM 46.4 °F - 46.4 °F 100% 30.06 in 7.0 mi Calm Calm - N/A   Overcast
2:35 AM 46.4 °F 45.2 °F 46.4 °F 100% 30.06 in 7.0 mi North 3.5 mph - N/A   Overcast
2:55 AM 46.4 °F - 46.4 °F 100% 30.05 in 9.0 mi Calm Calm - N/A   Overcast
3:15 AM 46.4 °F - 46.4 °F 100% 30.05 in 10.0 mi Calm Calm - N/A   Overcast
3:35 AM 46.4 °F - 46.4 °F 100% 30.04 in 9.0 mi Calm Calm - N/A   Overcast
3:55 AM 46.4 °F - 46.4 °F 100% 30.04 in 9.0 mi Calm Calm - N/A   Overcast
4:15 AM 46.4 °F - 46.4 °F 100% 30.04 in 10.0 mi Calm Calm - N/A   Overcast
4:35 AM 46.4 °F - 46.4 °F 100% 30.04 in 10.0 mi Calm Calm - N/A   Overcast
4:55 AM 46.4 °F - 46.4 °F 100% 30.04 in 10.0 mi Calm Calm - N/A   Overcast
5:15 AM 46.4 °F - 46.4 °F 100% 30.05 in 10.0 mi Calm Calm - N/A   Mostly Cloudy
5:35 AM 44.6 °F 43.1 °F 44.6 °F 100% 30.05 in 10.0 mi WSW 3.5 mph - N/A   Scattered Clouds
5:55 AM 44.6 °F - 44.6 °F 100% 30.05 in 10.0 mi Calm Calm - N/A   Partly Cloudy
6:15 AM 44.6 °F - 44.6 °F 100% 30.06 in 10.0 mi Calm Calm - N/A   Clear
6:35 AM 44.6 °F - 44.6 °F 100% 30.06 in 10.0 mi Calm Calm - N/A   Clear
6:55 AM 44.6 °F - 44.6 °F 100% 30.06 in 10.0 mi Calm Calm - N/A   Partly Cloudy
7:15 AM 46.4 °F 45.2 °F 46.4 °F 100% 30.07 in 10.0 mi West 3.5 mph - N/A   Partly Cloudy
7:35 AM 46.4 °F 45.2 °F 46.4 °F 100% 30.07 in 10.0 mi West 3.5 mph - N/A   Clear
7:55 AM 48.2 °F - 46.4 °F 93% 30.08 in 10.0 mi WNW 5.8 mph - N/A   Clear
8:15 AM 48.2 °F - 44.6 °F 87% 30.08 in 10.0 mi NW 5.8 mph - N/A   Clear
8:35 AM 50.0 °F - 46.4 °F 87% 30.08 in 10.0 mi NW 8.1 mph - N/A   Clear
8:55 AM 50.0 °F - 46.4 °F 87% 30.08 in 10.0 mi NW 8.1 mph - N/A   Clear
9:15 AM 51.8 °F - 48.2 °F 88% 30.08 in 10.0 mi West 8.1 mph - N/A   Partly Cloudy
9:55 AM 53.6 °F - 48.2 °F 82% 30.08 in 10.0 mi WNW 4.6 mph - N/A   Scattered Clouds
10:15 AM 53.6 °F - 48.2 °F 82% 30.07 in 10.0 mi WNW 4.6 mph - N/A   Scattered Clouds
10:35 AM 53.6 °F - 46.4 °F 77% 30.07 in 10.0 mi NNW 4.6 mph - N/A   Mostly Cloudy
10:55 AM 55.4 °F - 46.4 °F 72% 30.07 in 10.0 mi Calm Calm - N/A   Partly Cloudy
11:15 AM 55.4 °F - 46.4 °F 72% 30.06 in 10.0 mi Calm Calm - N/A   Clear
11:35 AM 57.2 °F - 44.6 °F 63% 30.07 in 10.0 mi Calm Calm - N/A   Clear
11:55 AM 57.2 °F - 46.4 °F 67% 30.06 in 10.0 mi NW 6.9 mph - N/A   Scattered Clouds
12:15 PM 59.0 °F - 46.4 °F 63% 30.05 in 10.0 mi NW 4.6 mph - N/A   Mostly Cloudy
12:35 PM 57.2 °F - 46.4 °F 67% 30.05 in 5.0 mi WNW 3.5 mph - 0.01 in Rain Light Rain
12:55 PM 57.2 °F - 48.2 °F 72% 30.04 in 9.0 mi West 3.5 mph - 0.01 in Rain Light Rain
1:15 PM 59.0 °F - 46.4 °F 63% 30.03 in 10.0 mi SW 4.6 mph - N/A   Clear
2:15 PM 59.0 °F - 44.6 °F 59% 30.01 in 10.0 mi SW 11.5 mph 24.2 mph N/A Thunderstorm Scattered Clouds
2:55 PM 57.2 °F - 44.6 °F 63% 30.01 in 9.0 mi WSW 5.8 mph - N/A Rain , Thunderstorm Light Thunderstorms and Rain
3:15 PM 50.0 °F - 46.4 °F 87% 30.04 in 1.2 mi North 4.6 mph 27.6 mph 0.25 in Rain , Thunderstorm Heavy Thunderstorms and Rain
3:35 PM 53.6 °F - 50.0 °F 88% 30.03 in 10.0 mi North 8.1 mph - 0.27 in   Mostly Cloudy
4:15 PM 55.4 °F - 50.0 °F 82% 30.02 in 10.0 mi North 5.8 mph - N/A Thunderstorm Scattered Clouds
4:35 PM 55.4 °F - 50.0 °F 82% 30.02 in 10.0 mi North 5.8 mph - N/A   Overcast
4:55 PM 57.2 °F - 41.0 °F 55% 30.02 in 10.0 mi NW 15.0 mph 23.0 mph N/A   Overcast
5:15 PM 57.2 °F - 39.2 °F 51% 30.02 in 10.0 mi NW 13.8 mph - N/A   Mostly Cloudy
5:35 PM 57.2 °F - 37.4 °F 48% 30.02 in 10.0 mi WNW 16.1 mph 19.6 mph N/A   Mostly Cloudy
5:55 PM 57.2 °F - 35.6 °F 44% 30.02 in 10.0 mi NW 17.3 mph 21.9 mph N/A   Scattered Clouds
6:15 PM 57.2 °F - 32.0 °F 38% 30.02 in 10.0 mi NW 16.1 mph 23.0 mph N/A   Scattered Clouds
6:35 PM 57.2 °F - 32.0 °F 38% 30.03 in 10.0 mi NW 17.3 mph 24.2 mph N/A   Scattered Clouds
6:55 PM 55.4 °F - 32.0 °F 41% 30.04 in 10.0 mi NW 12.7 mph - N/A   Mostly Cloudy
7:15 PM 55.4 °F - 35.6 °F 47% 30.05 in 10.0 mi NNW 6.9 mph - N/A   Mostly Cloudy
7:35 PM 53.6 °F - 37.4 °F 54% 30.06 in 10.0 mi NNW 8.1 mph - N/A   Overcast
7:55 PM 53.6 °F - 35.6 °F 51% 30.06 in 10.0 mi NNW 9.2 mph - N/A   Mostly Cloudy
8:15 PM 51.8 °F - 35.6 °F 54% 30.07 in 10.0 mi NW 10.4 mph - N/A   Mostly Cloudy
8:35 PM 51.8 °F - 35.6 °F 54% 30.08 in 10.0 mi NNW 8.1 mph - N/A   Mostly Cloudy
8:55 PM 50.0 °F - 37.4 °F 62% 30.08 in 10.0 mi NNW 5.8 mph - N/A   Overcast
9:15 PM 50.0 °F - 37.4 °F 62% 30.09 in 10.0 mi Calm Calm - N/A   Mostly Cloudy
9:35 PM 48.2 °F - 39.2 °F 71% 30.10 in 10.0 mi Calm Calm - N/A   Scattered Clouds
9:55 PM 48.2 °F - 39.2 °F 71% 30.10 in 10.0 mi NNW 3.5 mph - N/A   Mostly Cloudy
10:35 PM 48.2 °F - 35.6 °F 62% 30.10 in 10.0 mi NNW 3.5 mph - N/A   Mostly Cloudy
11:15 PM 46.4 °F 45.2 °F 37.4 °F 71% 30.09 in 10.0 mi NNW 3.5 mph - N/A   Partly Cloudy
11:35 PM 44.6 °F 43.1 °F 37.4 °F 76% 30.09 in 10.0 mi NNW 3.5 mph - N/A   Partly Cloudy
11:55 PM 44.6 °F 42.2 °F 37.4 °F 76% 30.08 in 10.0 mi NNW 4.6 mph - N/A   Clear